FW0984 Weather Reports


Display with metric or nautical units.
time (UTC)temp
F
wind
direction
speed
MPH
gust
MPH
rain 1hr
in
rain 24hr
in
rain mn
in
humidity
%
barometer
mb
20260506044506 58 157 0.0 0.0 0.07 0.69 0.06 95 1007.3
20260506043006 58 157 0.0 0.0 0.03 0.65 0.02 95 1007.5
20260506041502 58 157 0.0 0.0 0.02 0.64 0.01 95 1007.3
20260506040001 58 157 0.0 0.0 0.01 0.63 0.00 95 1007.1
20260506034604 58 157 0.0 0.0 0.01 0.62 0.62 95 1007.4
20260506033100 58 137 0.0 0.0 0.01 0.62 0.62 95 1007.5
20260506031603 58 137 0.0 0.0 0.02 0.62 0.62 95 1007.6
20260506030116 58 137 0.0 0.0 0.04 0.62 0.62 95 1007.8
20260506024600 59 209 0.0 0.0 0.05 0.61 0.61 95 1008.4
20260506023058 59 209 0.0 0.0 0.07 0.61 0.61 95 1008.4
20260506021600 59 209 0.0 0.0 0.09 0.59 0.59 95 1008.4
20260506020056 59 209 0.0 0.0 0.12 0.57 0.57 95 1008.6
20260506014600 59 209 0.0 0.0 0.10 0.56 0.56 95 1008.5
20260506013055 59 209 0.0 0.0 0.08 0.53 0.53 94 1008.3
20260506011553 59 235 0.0 0.0 0.04 0.49 0.49 94 1008.3
20260506010103 59 203 0.0 0.0 0.01 0.46 0.46 94 1008.1
20260506004554 59 203 0.0 0.0 0.02 0.46 0.46 94 1007.9
20260506003053 59 203 0.0 0.0 0.01 0.45 0.45 94 1007.9
20260506001553 60 203 0.0 0.0 0.01 0.45 0.45 94 1007.5
20260506000053 60 252 0.0 0.0 0.01 0.45 0.45 94 1007.7
20260505234551 60 252 0.0 0.0 0.00 0.44 0.44 94 1007.6
20260505233103 60 257 0.0 0.0 0.01 0.44 0.44 94 1007.6
20260505231550 60 230 0.0 0.0 0.01 0.44 0.44 94 1007.7
20260505230051 60 243 0.0 0.0 0.01 0.44 0.44 94 1008.0
20260505224550 60 244 0.0 0.0 0.01 0.44 0.44 94 1008.2
20260505223051 60 254 0.0 2.0 0.01 0.43 0.43 93 1008.4
20260505221548 60 257 0.0 0.0 0.04 0.43 0.43 93 1008.6
20260505220048 60 252 0.0 0.0 0.07 0.43 0.43 93 1008.9
20260505214547 60 252 0.0 2.0 0.09 0.43 0.43 92 1008.8
20260505213049 60 240 0.0 2.0 0.13 0.42 0.42 92 1008.9
20260505211547 61 240 1.0 3.0 0.19 0.39 0.39 91 1008.9
20260505210048 61 252 1.0 3.0 0.30 0.36 0.36 90 1008.8
20260505204545 62 250 0.0 2.0 0.30 0.33 0.33 89 1008.9
20260505203051 63 254 0.0 3.0 0.26 0.28 0.28 86 1008.9
20260505201547 65 245 0.0 2.0 0.17 0.20 0.20 81 1009.0
20260505200043 67 275 1.0 4.0 0.03 0.06 0.06 76 1009.1
20260505194542 68 239 1.0 4.0 0.00 0.03 0.03 70 1008.6
20260505193049 68 264 0.0 3.0 0.00 0.03 0.03 69 1008.6
20260505191532 68 257 0.0 3.0 0.00 0.03 0.03 69 1008.6
20260505190036 68 267 1.0 4.0 0.00 0.03 0.03 68 1008.6
20260505184528 67 274 1.0 3.0 0.00 0.03 0.03 68 1009.0
20260505183026 67 254 0.0 2.0 0.00 0.03 0.03 69 1009.2
20260505181523 67 259 1.0 3.0 0.00 0.03 0.03 68 1009.6
20260505180028 67 264 0.0 0.0 0.00 0.03 0.03 68 1009.6
20260505174518 67 269 0.0 1.0 0.00 0.03 0.03 68 1009.7
20260505173018 66 263 0.0 2.0 0.00 0.03 0.03 67 1009.9
20260505171517 66 263 0.0 2.0 0.00 0.03 0.03 68 1009.9
20260505170019 66 261 0.0 2.0 0.00 0.03 0.03 68 1009.9
20260505164515 66 275 1.0 3.0 0.00 0.03 0.03 67 1009.9
20260505163014 66 257 1.0 4.0 0.00 0.03 0.03 68 1010.0
20260505161516 66 267 0.0 3.0 0.00 0.03 0.03 69 1009.9
20260505153010 66 235 1.0 4.0 0.00 0.03 0.03 73 1009.7
20260505151508 65 255 0.0 3.0 0.00 0.03 0.03 73 1009.6
20260505140104 59 248 0.0 0.0 0.00 0.03 0.03 90 1009.0
20260505124557 58 257 0.0 1.0 0.00 0.03 0.03 93 1009.6
20260505123057 58 257 0.0 0.0 0.01 0.03 0.03 92 1009.8
20260505121547 57 260 0.0 1.0 0.01 0.03 0.03 92 1009.7
20260505120054 57 9 0.0 2.0 0.01 0.03 0.03 91 1009.9
20260505114543 58 275 0.0 2.0 0.02 0.03 0.03 90 1009.8
20260505113040 58 279 0.0 0.0 0.01 0.02 0.02 89 1009.4
20260505111538 58 215 0.0 0.0 0.02 0.02 0.02 87 1009.0
20260505101530 61 236 0.0 3.0 0.00 0.00 0.00 78 1009.9
20260505100029 62 333 0.0 8.0 0.00 0.00 0.00 73 1009.9
20260505094521 62 9 0.0 0.0 0.00 0.00 0.00 67 1009.6
20260505093018 63 180 0.0 0.0 0.00 0.00 0.00 67 1009.0
20260505091518 63 244 0.0 0.0 0.00 0.00 0.00 65 1008.8
20260505090015 63 244 0.0 0.0 0.00 0.00 0.00 65 1008.5
20260505084513 63 244 0.0 0.0 0.00 0.00 0.00 65 1008.5
20260505083017 63 242 0.0 0.0 0.00 0.00 0.00 64 1008.3
20260505081508 63 242 0.0 0.0 0.00 0.00 0.00 64 1008.2
20260505080016 63 242 0.0 0.0 0.00 0.00 0.00 63 1008.1
20260505074505 64 242 0.0 0.0 0.00 0.00 0.00 63 1008.1
20260505073006 64 242 0.0 0.0 0.00 0.00 0.00 62 1007.9
20260505071503 64 245 0.0 2.0 0.00 0.00 0.00 62 1007.8
20260505070105 65 256 0.0 2.0 0.00 0.00 0.00 62 1007.7
20260505064610 65 258 0.0 2.0 0.00 0.00 0.00 62 1007.6
20260505063101 65 246 0.0 0.0 0.00 0.00 0.00 61 1007.7
20260505061559 65 252 1.0 2.0 0.00 0.00 0.00 61 1007.7
20260505054555 66 248 1.0 3.0 0.00 0.00 0.00 61 1007.0
20260505053052 66 252 1.0 11.0 0.00 0.00 0.00 61 1007.0